contact:dominique.lefevre@mio.osupytheas.fr, maurice.libes@osupytheas.fr, didier.mallarino@osupytheas.fr
Project:EMSO http://www.emso-fr.org/EMSO-France
Depth: 2436.0 m
Title:EMSO Ligure Ouest : Data MII capteur CSTAR
DateTime,Latitude,Longitude,Instrument_Serial,Reference_Counts,Signal_Counts,Corrected_Signal_raw_counts,Calculated_Beam_c_inverse_meters,Internal_thermistor_counts
DateTime,Latitude,Longitude,Instrument_Serial,Reference_Counts,Signal_Counts,Corrected_Signal_raw_counts,Calculated_Beam_c_inverse_meters,Internal_thermistor_counts
2019-11-24T00:00:53,42.805,6.029,CST-1368DR,7301,10230,15303,0.081,551
2019-11-24T00:03:55,42.805,6.029,CST-1368DR,7301,10227,15298,0.082,551
2019-11-24T00:06:56,42.805,6.029,CST-1368DR,7301,10231,15304,0.081,550
2019-11-24T00:09:58,42.805,6.029,CST-1368DR,7301,10230,15302,0.081,551
2019-11-24T00:13:00,42.805,6.029,CST-1368DR,7301,10229,15301,0.082,551
2019-11-24T00:16:01,42.805,6.029,CST-1368DR,7301,10228,15300,0.082,551
2019-11-24T00:19:03,42.805,6.029,CST-1368DR,7301,10228,15300,0.082,551
2019-11-24T00:22:04,42.805,6.029,CST-1368DR,7301,10230,15302,0.081,551
2019-11-24T00:25:06,42.805,6.029,CST-1368DR,7301,10229,15302,0.081,551
2019-11-24T00:28:08,42.805,6.029,CST-1368DR,7301,10228,15300,0.082,551
2019-11-24T00:31:09,42.805,6.029,CST-1368DR,7301,10229,15301,0.082,551
2019-11-24T00:34:11,42.805,6.029,CST-1368DR,7301,10228,15299,0.082,551
2019-11-24T00:37:13,42.805,6.029,CST-1368DR,7301,10229,15301,0.082,551
2019-11-24T00:40:15,42.805,6.029,CST-1368DR,7301,10228,15300,0.082,551
2019-11-24T00:43:16,42.805,6.029,CST-1368DR,7301,10230,15302,0.081,551
2019-11-24T00:46:18,42.805,6.029,CST-1368DR,7301,10230,15303,0.081,551
2019-11-24T00:49:19,42.805,6.029,CST-1368DR,7301,10228,15300,0.082,551
2019-11-24T00:52:21,42.805,6.029,CST-1368DR,7301,10228,15300,0.082,551
2019-11-24T00:55:23,42.805,6.029,CST-1368DR,7301,10229,15301,0.082,551
2019-11-24T00:58:24,42.805,6.029,CST-1368DR,7301,10227,15298,0.082,551
2019-11-24T01:01:26,42.805,6.029,CST-1368DR,7301,10227,15298,0.082,551
2019-11-24T01:04:28,42.805,6.029,CST-1368DR,7301,10227,15298,0.082,551
2019-11-24T01:07:29,42.805,6.029,CST-1368DR,7301,10229,15301,0.082,551
2019-11-24T01:10:31,42.805,6.029,CST-1368DR,7301,10228,15299,0.082,551
2019-11-24T01:13:32,42.805,6.029,CST-1368DR,7301,10229,15301,0.082,551
2019-11-24T01:16:34,42.805,6.029,CST-1368DR,7301,10228,15300,0.082,551
2019-11-24T01:19:36,42.805,6.029,CST-1368DR,7301,10229,15301,0.082,551
2019-11-24T01:22:37,42.805,6.029,CST-1368DR,7301,10228,15300,0.082,551
2019-11-24T01:25:39,42.805,6.029,CST-1368DR,7300,10228,15302,0.081,551
2019-11-24T01:28:41,42.805,6.029,CST-1368DR,7300,10228,15302,0.081,551
2019-11-24T01:31:42,42.805,6.029,CST-1368DR,7300,10228,15302,0.081,551
2019-11-24T01:34:44,42.805,6.029,CST-1368DR,7300,10229,15303,0.081,551
2019-11-24T01:37:45,42.805,6.029,CST-1368DR,7300,10227,15300,0.082,551
2019-11-24T01:40:47,42.805,6.029,CST-1368DR,7300,10228,15302,0.081,551
2019-11-24T01:43:49,42.805,6.029,CST-1368DR,7301,10229,15301,0.082,550
2019-11-24T01:46:50,42.805,6.029,CST-1368DR,7300,10228,15302,0.081,551
2019-11-24T01:49:52,42.805,6.029,CST-1368DR,7300,10229,15303,0.081,551
2019-11-24T01:52:54,42.805,6.029,CST-1368DR,7300,10228,15302,0.081,551
2019-11-24T01:55:55,42.805,6.029,CST-1368DR,7300,10229,15303,0.081,551
2019-11-24T01:58:57,42.805,6.029,CST-1368DR,7300,10228,15302,0.081,551
2019-11-24T02:01:58,42.805,6.029,CST-1368DR,7300,10229,15303,0.081,551
2019-11-24T02:05:00,42.805,6.029,CST-1368DR,7300,10227,15300,0.082,551
2019-11-24T02:08:02,42.805,6.029,CST-1368DR,7300,10225,15298,0.082,551
2019-11-24T02:11:03,42.805,6.029,CST-1368DR,7300,10227,15301,0.082,551
2019-11-24T02:14:05,42.805,6.029,CST-1368DR,7300,10228,15301,0.082,551
2019-11-24T02:17:07,42.805,6.029,CST-1368DR,7300,10228,15302,0.081,551
2019-11-24T02:20:08,42.805,6.029,CST-1368DR,7300,10227,15300,0.082,551
2019-11-24T02:23:10,42.805,6.029,CST-1368DR,7300,10227,15301,0.082,551
2019-11-24T02:26:12,42.805,6.029,CST-1368DR,7300,10226,15299,0.082,551
2019-11-24T02:29:13,42.805,6.029,CST-1368DR,7300,10228,15302,0.081,551
2019-11-24T02:32:15,42.805,6.029,CST-1368DR,7300,10227,15300,0.082,551
2019-11-24T02:35:16,42.805,6.029,CST-1368DR,7300,10227,15300,0.082,551
2019-11-24T02:38:18,42.805,6.029,CST-1368DR,7300,10227,15300,0.082,551
2019-11-24T02:41:20,42.805,6.029,CST-1368DR,7300,10228,15301,0.082,551
2019-11-24T02:44:21,42.805,6.029,CST-1368DR,7300,10227,15301,0.082,551
2019-11-24T02:47:23,42.805,6.029,CST-1368DR,7300,10227,15300,0.082,551
2019-11-24T02:50:25,42.805,6.029,CST-1368DR,7300,10228,15301,0.082,551
2019-11-24T02:53:26,42.805,6.029,CST-1368DR,7300,10226,15299,0.082,551
2019-11-24T02:56:28,42.805,6.029,CST-1368DR,7300,10228,15301,0.082,551
2019-11-24T02:59:31,42.805,6.029,CST-1368DR,7300,10226,15299,0.082,551
2019-11-24T03:02:32,42.805,6.029,CST-1368DR,7300,10227,15300,0.082,551
2019-11-24T03:05:34,42.805,6.029,CST-1368DR,7300,10226,15299,0.082,551
2019-11-24T03:08:36,42.805,6.029,CST-1368DR,7300,10227,15301,0.082,551
2019-11-24T03:11:37,42.805,6.029,CST-1368DR,7300,10227,15300,0.082,551
2019-11-24T03:14:39,42.805,6.029,CST-1368DR,7300,10227,15300,0.082,551
2019-11-24T03:17:40,42.805,6.029,CST-1368DR,7300,10227,15300,0.082,550
2019-11-24T03:20:42,42.805,6.029,CST-1368DR,7300,10227,15300,0.082,551
2019-11-24T03:23:44,42.805,6.029,CST-1368DR,7300,10227,15300,0.082,551
2019-11-24T03:26:45,42.805,6.029,CST-1368DR,7300,10227,15301,0.082,550
2019-11-24T03:29:47,42.805,6.029,CST-1368DR,7300,10227,15300,0.082,551
2019-11-24T03:32:49,42.805,6.029,CST-1368DR,7300,10225,15298,0.082,551
2019-11-24T03:35:50,42.805,6.029,CST-1368DR,7300,10227,15300,0.082,551
2019-11-24T03:38:52,42.805,6.029,CST-1368DR,7300,10227,15300,0.082,551
2019-11-24T03:41:53,42.805,6.029,CST-1368DR,7300,10227,15300,0.082,551
2019-11-24T03:44:55,42.805,6.029,CST-1368DR,7300,10228,15301,0.082,551
2019-11-24T03:47:57,42.805,6.029,CST-1368DR,7300,10226,15299,0.082,551
2019-11-24T03:50:59,42.805,6.029,CST-1368DR,7300,10227,15300,0.082,551
2019-11-24T03:54:00,42.805,6.029,CST-1368DR,7300,10227,15300,0.082,551
2019-11-24T03:57:02,42.805,6.029,CST-1368DR,7300,10227,15300,0.082,551
2019-11-24T04:00:03,42.805,6.029,CST-1368DR,7300,10225,15297,0.083,551
2019-11-24T04:03:05,42.805,6.029,CST-1368DR,7300,10227,15300,0.082,551
2019-11-24T04:06:07,42.805,6.029,CST-1368DR,7300,10227,15300,0.082,551
2019-11-24T04:09:08,42.805,6.029,CST-1368DR,7300,10227,15300,0.082,551
2019-11-24T04:12:10,42.805,6.029,CST-1368DR,7300,10227,15300,0.082,551
2019-11-24T04:15:12,42.805,6.029,CST-1368DR,7299,10227,15302,0.081,551
2019-11-24T04:18:13,42.805,6.029,CST-1368DR,7299,10227,15302,0.081,551
2019-11-24T04:21:15,42.805,6.029,CST-1368DR,7299,10227,15303,0.081,551
2019-11-24T04:24:17,42.805,6.029,CST-1368DR,7299,10227,15302,0.081,551
2019-11-24T04:27:18,42.805,6.029,CST-1368DR,7299,10226,15301,0.082,551
2019-11-24T04:30:20,42.805,6.029,CST-1368DR,7299,10227,15302,0.081,551
2019-11-24T04:33:22,42.805,6.029,CST-1368DR,7299,10227,15302,0.081,551
2019-11-24T04:36:23,42.805,6.029,CST-1368DR,7299,10227,15302,0.081,551
2019-11-24T04:39:25,42.805,6.029,CST-1368DR,7299,10227,15302,0.081,551
2019-11-24T04:42:27,42.805,6.029,CST-1368DR,7299,10227,15302,0.081,551
2019-11-24T04:45:29,42.805,6.029,CST-1368DR,7299,10226,15301,0.082,550
2019-11-24T04:48:30,42.805,6.029,CST-1368DR,7299,10225,15300,0.082,551
2019-11-24T04:51:32,42.805,6.029,CST-1368DR,7299,10227,15302,0.081,551
2019-11-24T04:54:33,42.805,6.029,CST-1368DR,7299,10227,15302,0.081,551
2019-11-24T04:57:35,42.805,6.029,CST-1368DR,7299,10226,15301,0.082,551
2019-11-24T05:00:37,42.805,6.029,CST-1368DR,7299,10225,15299,0.082,551
2019-11-24T05:03:38,42.805,6.029,CST-1368DR,7299,10227,15302,0.081,551
2019-11-24T05:06:40,42.805,6.029,CST-1368DR,7299,10225,15300,0.082,551
2019-11-24T05:09:42,42.805,6.029,CST-1368DR,7299,10226,15301,0.082,551
2019-11-24T05:12:43,42.805,6.029,CST-1368DR,7299,10226,15301,0.082,551
2019-11-24T05:15:45,42.805,6.029,CST-1368DR,7299,10226,15301,0.082,551
2019-11-24T05:18:47,42.805,6.029,CST-1368DR,7299,10226,15300,0.082,551
2019-11-24T05:21:48,42.805,6.029,CST-1368DR,7299,10227,15302,0.081,551
2019-11-24T05:24:50,42.805,6.029,CST-1368DR,7299,10226,15301,0.082,551
2019-11-24T05:27:51,42.805,6.029,CST-1368DR,7299,10223,15296,0.083,551
2019-11-24T05:30:53,42.805,6.029,CST-1368DR,7299,10224,15297,0.083,551
2019-11-24T05:33:55,42.805,6.029,CST-1368DR,7299,10225,15300,0.082,551
2019-11-24T05:36:56,42.805,6.029,CST-1368DR,7299,10226,15301,0.082,551
2019-11-24T05:39:58,42.805,6.029,CST-1368DR,7299,10224,15298,0.082,551
2019-11-24T05:42:59,42.805,6.029,CST-1368DR,7299,10227,15302,0.081,550
2019-11-24T05:46:01,42.805,6.029,CST-1368DR,7299,10227,15302,0.081,551
2019-11-24T05:49:03,42.805,6.029,CST-1368DR,7299,10226,15301,0.082,551
2019-11-24T05:52:04,42.805,6.029,CST-1368DR,7299,10226,15301,0.082,551
2019-11-24T05:55:06,42.805,6.029,CST-1368DR,7299,10227,15302,0.081,551
2019-11-24T05:58:08,42.805,6.029,CST-1368DR,7299,10226,15301,0.082,551
2019-11-24T06:01:10,42.805,6.029,CST-1368DR,7299,10226,15300,0.082,551
2019-11-24T06:04:11,42.805,6.029,CST-1368DR,7299,10226,15300,0.082,551
2019-11-24T06:07:13,42.805,6.029,CST-1368DR,7299,10226,15301,0.082,551
2019-11-24T06:10:15,42.805,6.029,CST-1368DR,7299,10226,15300,0.082,551
2019-11-24T06:13:16,42.805,6.029,CST-1368DR,7299,10225,15299,0.082,551
2019-11-24T06:16:18,42.805,6.029,CST-1368DR,7299,10225,15299,0.082,551
2019-11-24T06:19:20,42.805,6.029,CST-1368DR,7299,10226,15300,0.082,551
2019-11-24T06:22:21,42.805,6.029,CST-1368DR,7299,10226,15301,0.082,551
2019-11-24T06:25:23,42.805,6.029,CST-1368DR,7299,10226,15300,0.082,551
2019-11-24T06:28:25,42.805,6.029,CST-1368DR,7299,10226,15300,0.082,551
2019-11-24T06:31:26,42.805,6.029,CST-1368DR,7299,10225,15300,0.082,551
2019-11-24T06:34:28,42.805,6.029,CST-1368DR,7299,10226,15300,0.082,551
2019-11-24T06:37:30,42.805,6.029,CST-1368DR,7299,10225,15300,0.082,551
2019-11-24T06:40:31,42.805,6.029,CST-1368DR,7299,10225,15300,0.082,551
2019-11-24T06:43:33,42.805,6.029,CST-1368DR,7299,10226,15301,0.082,551
2019-11-24T06:46:35,42.805,6.029,CST-1368DR,7299,10226,15301,0.082,551
2019-11-24T06:49:36,42.805,6.029,CST-1368DR,7299,10227,15302,0.081,551
2019-11-24T06:52:38,42.805,6.029,CST-1368DR,7299,10226,15301,0.082,551
2019-11-24T06:55:39,42.805,6.029,CST-1368DR,7299,10226,15301,0.082,551
2019-11-24T06:58:41,42.805,6.029,CST-1368DR,7299,10226,15300,0.082,551
2019-11-24T07:01:43,42.805,6.029,CST-1368DR,7299,10226,15301,0.082,551
2019-11-24T07:04:44,42.805,6.029,CST-1368DR,7299,10226,15301,0.082,551
2019-11-24T07:07:46,42.805,6.029,CST-1368DR,7299,10226,15301,0.082,551
2019-11-24T07:10:48,42.805,6.029,CST-1368DR,7299,10226,15301,0.082,551
2019-11-24T07:13:49,42.805,6.029,CST-1368DR,7299,10226,15301,0.082,551
2019-11-24T07:16:51,42.805,6.029,CST-1368DR,7299,10226,15301,0.082,551
2019-11-24T07:19:52,42.805,6.029,CST-1368DR,7299,10225,15300,0.082,551
2019-11-24T07:22:54,42.805,6.029,CST-1368DR,7299,10226,15301,0.082,551
2019-11-24T07:25:56,42.805,6.029,CST-1368DR,7299,10225,15299,0.082,551
2019-11-24T07:28:58,42.805,6.029,CST-1368DR,7299,10225,15299,0.082,551
2019-11-24T07:31:59,42.805,6.029,CST-1368DR,7299,10225,15300,0.082,551
2019-11-24T07:35:01,42.805,6.029,CST-1368DR,7299,10225,15300,0.082,551
2019-11-24T07:38:02,42.805,6.029,CST-1368DR,7299,10225,15299,0.082,551
2019-11-24T07:41:04,42.805,6.029,CST-1368DR,7299,10225,15299,0.082,550
2019-11-24T07:44:06,42.805,6.029,CST-1368DR,7298,10225,15302,0.081,551
2019-11-24T07:47:07,42.805,6.029,CST-1368DR,7298,10225,15301,0.082,551
2019-11-24T07:50:09,42.805,6.029,CST-1368DR,7298,10224,15299,0.082,551
2019-11-24T07:53:11,42.805,6.029,CST-1368DR,7299,10227,15302,0.081,551
2019-11-24T07:56:12,42.805,6.029,CST-1368DR,7298,10225,15301,0.082,551
2019-11-24T07:59:14,42.805,6.029,CST-1368DR,7298,10226,15303,0.081,551
2019-11-24T08:02:15,42.805,6.029,CST-1368DR,7298,10226,15302,0.081,551
2019-11-24T08:05:17,42.805,6.029,CST-1368DR,7298,10225,15301,0.082,551
2019-11-24T08:08:19,42.805,6.029,CST-1368DR,7298,10225,15301,0.082,551
2019-11-24T08:11:20,42.805,6.029,CST-1368DR,7298,10225,15302,0.081,551
2019-11-24T08:14:22,42.805,6.029,CST-1368DR,7298,10225,15301,0.082,551
2019-11-24T08:17:24,42.805,6.029,CST-1368DR,7298,10225,15301,0.082,551
2019-11-24T08:20:25,42.805,6.029,CST-1368DR,7298,10225,15301,0.082,551
2019-11-24T08:23:27,42.805,6.029,CST-1368DR,7298,10225,15301,0.082,551
2019-11-24T08:26:28,42.805,6.029,CST-1368DR,7298,10225,15301,0.082,551
2019-11-24T08:29:31,42.805,6.029,CST-1368DR,7298,10225,15302,0.081,551
2019-11-24T08:32:32,42.805,6.029,CST-1368DR,7298,10222,15296,0.083,551
2019-11-24T08:35:34,42.805,6.029,CST-1368DR,7298,10225,15301,0.082,551
2019-11-24T08:38:36,42.805,6.029,CST-1368DR,7298,10224,15300,0.082,551
2019-11-24T08:41:38,42.805,6.029,CST-1368DR,7298,10225,15301,0.082,550
2019-11-24T08:44:39,42.805,6.029,CST-1368DR,7298,10224,15300,0.082,551
2019-11-24T08:47:41,42.805,6.029,CST-1368DR,7298,10226,15302,0.081,551
2019-11-24T08:50:43,42.805,6.029,CST-1368DR,7298,10225,15302,0.081,551
2019-11-24T08:53:44,42.805,6.029,CST-1368DR,7298,10225,15301,0.082,551
2019-11-24T08:56:46,42.805,6.029,CST-1368DR,7298,10225,15301,0.082,551
2019-11-24T08:59:47,42.805,6.029,CST-1368DR,7298,10225,15302,0.081,551
2019-11-24T09:02:49,42.805,6.029,CST-1368DR,7298,10225,15301,0.082,551
2019-11-24T09:05:51,42.805,6.029,CST-1368DR,7298,10225,15301,0.082,551
2019-11-24T09:08:52,42.805,6.029,CST-1368DR,7298,10226,15302,0.081,551
2019-11-24T09:11:54,42.805,6.029,CST-1368DR,7298,10225,15301,0.082,551
2019-11-24T09:14:56,42.805,6.029,CST-1368DR,7298,10224,15300,0.082,550
2019-11-24T09:17:57,42.805,6.029,CST-1368DR,7298,10224,15300,0.082,551
2019-11-24T09:20:59,42.805,6.029,CST-1368DR,7298,10225,15301,0.082,551
2019-11-24T09:24:00,42.805,6.029,CST-1368DR,7298,10222,15297,0.083,551
2019-11-24T09:27:02,42.805,6.029,CST-1368DR,7298,10224,15299,0.082,551
2019-11-24T09:30:04,42.805,6.029,CST-1368DR,7298,10224,15300,0.082,551
2019-11-24T09:33:06,42.805,6.029,CST-1368DR,7298,10224,15299,0.082,551
2019-11-24T09:36:07,42.805,6.029,CST-1368DR,7298,10223,15299,0.082,551
2019-11-24T09:39:09,42.805,6.029,CST-1368DR,7298,10223,15299,0.082,551
2019-11-24T09:42:10,42.805,6.029,CST-1368DR,7298,10224,15300,0.082,550
2019-11-24T09:45:12,42.805,6.029,CST-1368DR,7298,10224,15299,0.082,551
2019-11-24T09:48:14,42.805,6.029,CST-1368DR,7298,10224,15299,0.082,551
2019-11-24T09:51:15,42.805,6.029,CST-1368DR,7298,10223,15298,0.082,550
2019-11-24T09:54:17,42.805,6.029,CST-1368DR,7298,10224,15300,0.082,551
2019-11-24T09:57:19,42.805,6.029,CST-1368DR,7298,10225,15301,0.082,551
2019-11-24T10:00:20,42.805,6.029,CST-1368DR,7298,10224,15299,0.082,551
2019-11-24T10:03:22,42.805,6.029,CST-1368DR,7298,10214,15285,0.086,551
2019-11-24T10:06:23,42.805,6.029,CST-1368DR,7298,10223,15299,0.082,551
2019-11-24T10:09:25,42.805,6.029,CST-1368DR,7298,10223,15298,0.082,551
2019-11-24T10:12:27,42.805,6.029,CST-1368DR,7298,10224,15299,0.082,551
2019-11-24T10:15:28,42.805,6.029,CST-1368DR,7298,10224,15300,0.082,551
2019-11-24T10:18:30,42.805,6.029,CST-1368DR,7298,10223,15298,0.082,551
2019-11-24T10:21:32,42.805,6.029,CST-1368DR,7298,10224,15299,0.082,550
2019-11-24T10:24:33,42.805,6.029,CST-1368DR,7298,10223,15298,0.082,551
2019-11-24T10:27:35,42.805,6.029,CST-1368DR,7298,10225,15301,0.082,551
2019-11-24T10:30:37,42.805,6.029,CST-1368DR,7298,10219,15293,0.084,551
2019-11-24T10:33:38,42.805,6.029,CST-1368DR,7298,10224,15299,0.082,551
2019-11-24T10:36:40,42.805,6.029,CST-1368DR,7298,10223,15298,0.082,551
2019-11-24T10:39:41,42.805,6.029,CST-1368DR,7298,10223,15298,0.082,551
2019-11-24T10:42:43,42.805,6.029,CST-1368DR,7298,10224,15300,0.082,551
2019-11-24T10:45:45,42.805,6.029,CST-1368DR,7298,10224,15299,0.082,551
2019-11-24T10:48:46,42.805,6.029,CST-1368DR,7298,10223,15298,0.082,550
2019-11-24T10:51:48,42.805,6.029,CST-1368DR,7298,10224,15300,0.082,551
2019-11-24T10:54:50,42.805,6.029,CST-1368DR,7298,10223,15298,0.082,551
2019-11-24T10:57:51,42.805,6.029,CST-1368DR,7298,10222,15296,0.083,551
2019-11-24T11:00:53,42.805,6.029,CST-1368DR,7298,10223,15298,0.082,551
2019-11-24T11:03:55,42.805,6.029,CST-1368DR,7298,10224,15299,0.082,551
2019-11-24T11:06:56,42.805,6.029,CST-1368DR,7298,10223,15298,0.082,551
2019-11-24T11:09:58,42.805,6.029,CST-1368DR,7298,10222,15296,0.083,551
2019-11-24T11:13:00,42.805,6.029,CST-1368DR,7298,10224,15300,0.082,551
2019-11-24T11:16:01,42.805,6.029,CST-1368DR,7297,10224,15301,0.082,551
2019-11-24T11:19:03,42.805,6.029,CST-1368DR,7297,10221,15297,0.083,551
2019-11-24T11:22:04,42.805,6.029,CST-1368DR,7297,10223,15300,0.082,551
2019-11-24T11:25:06,42.805,6.029,CST-1368DR,7297,10223,15300,0.082,551
2019-11-24T11:28:08,42.805,6.029,CST-1368DR,7297,10223,15300,0.082,551
2019-11-24T11:31:09,42.805,6.029,CST-1368DR,7297,10223,15300,0.082,550
2019-11-24T11:34:11,42.805,6.029,CST-1368DR,7297,10223,15300,0.082,551
2019-11-24T11:37:13,42.805,6.029,CST-1368DR,7298,10221,15296,0.083,551
2019-11-24T11:40:14,42.805,6.029,CST-1368DR,7297,10223,15300,0.082,551
2019-11-24T11:43:16,42.805,6.029,CST-1368DR,7297,10223,15301,0.082,551
2019-11-24T11:46:18,42.805,6.029,CST-1368DR,7297,10223,15300,0.082,550
2019-11-24T11:49:19,42.805,6.029,CST-1368DR,7297,10220,15296,0.083,550
2019-11-24T11:52:21,42.805,6.029,CST-1368DR,7297,10224,15301,0.082,551
2019-11-24T11:55:22,42.805,6.029,CST-1368DR,7297,10221,15298,0.082,551
2019-11-24T11:58:24,42.805,6.029,CST-1368DR,7297,10223,15300,0.082,551
2019-11-24T12:01:26,42.805,6.029,CST-1368DR,7297,10224,15302,0.081,551
2019-11-24T12:04:28,42.805,6.029,CST-1368DR,7297,10219,15295,0.083,551
2019-11-24T12:07:29,42.805,6.029,CST-1368DR,7297,10224,15301,0.082,550
2019-11-24T12:10:31,42.805,6.029,CST-1368DR,7297,10223,15300,0.082,551
2019-11-24T12:13:32,42.805,6.029,CST-1368DR,7297,10222,15298,0.082,551
2019-11-24T12:16:34,42.805,6.029,CST-1368DR,7297,10222,15298,0.082,551
2019-11-24T12:19:36,42.805,6.029,CST-1368DR,7297,10222,15298,0.082,551
2019-11-24T12:22:37,42.805,6.029,CST-1368DR,7297,10223,15300,0.082,551
2019-11-24T12:25:39,42.805,6.029,CST-1368DR,7297,10222,15298,0.082,551
2019-11-24T12:28:41,42.805,6.029,CST-1368DR,7297,10223,15300,0.082,551
2019-11-24T12:31:42,42.805,6.029,CST-1368DR,7297,10220,15296,0.083,550
2019-11-24T12:34:44,42.805,6.029,CST-1368DR,7297,10222,15298,0.082,551
2019-11-24T12:37:46,42.805,6.029,CST-1368DR,7297,10222,15299,0.082,550
2019-11-24T12:40:47,42.805,6.029,CST-1368DR,7297,10221,15297,0.083,551
2019-11-24T12:43:49,42.805,6.029,CST-1368DR,7297,10221,15298,0.082,551
2019-11-24T12:46:51,42.805,6.029,CST-1368DR,7297,10222,15298,0.082,551
2019-11-24T12:49:52,42.805,6.029,CST-1368DR,7297,10219,15295,0.083,550
2019-11-24T12:52:54,42.805,6.029,CST-1368DR,7297,10220,15295,0.083,551
2019-11-24T12:55:55,42.805,6.029,CST-1368DR,7297,10222,15298,0.082,551
2019-11-24T12:58:57,42.805,6.029,CST-1368DR,7297,10220,15295,0.083,551
2019-11-24T13:01:59,42.805,6.029,CST-1368DR,7297,10222,15298,0.082,550
2019-11-24T13:05:00,42.805,6.029,CST-1368DR,7297,10220,15295,0.083,551
2019-11-24T13:08:02,42.805,6.029,CST-1368DR,7297,10221,15297,0.083,551
2019-11-24T13:11:04,42.805,6.029,CST-1368DR,7297,10222,15298,0.082,551
2019-11-24T13:14:05,42.805,6.029,CST-1368DR,7297,10220,15295,0.083,551
2019-11-24T13:17:07,42.805,6.029,CST-1368DR,7297,10222,15298,0.082,551
2019-11-24T13:20:08,42.805,6.029,CST-1368DR,7297,10222,15298,0.082,551
2019-11-24T13:23:10,42.805,6.029,CST-1368DR,7297,10223,15300,0.082,551
2019-11-24T13:26:12,42.805,6.029,CST-1368DR,7297,10222,15298,0.082,551
2019-11-24T13:29:13,42.805,6.029,CST-1368DR,7297,10223,15300,0.082,551
2019-11-24T13:32:15,42.805,6.029,CST-1368DR,7297,10222,15298,0.082,551
2019-11-24T13:35:17,42.805,6.029,CST-1368DR,7297,10222,15299,0.082,551
2019-11-24T13:38:18,42.805,6.029,CST-1368DR,7297,10221,15297,0.083,550
2019-11-24T13:41:20,42.805,6.029,CST-1368DR,7297,10222,15299,0.082,551
2019-11-24T13:44:22,42.805,6.029,CST-1368DR,7297,10223,15300,0.082,551
2019-11-24T13:47:23,42.805,6.029,CST-1368DR,7297,10223,15301,0.082,551
2019-11-24T13:50:25,42.805,6.029,CST-1368DR,7297,10222,15298,0.082,551
2019-11-24T13:53:27,42.805,6.029,CST-1368DR,7297,10223,15300,0.082,550
2019-11-24T13:56:28,42.805,6.029,CST-1368DR,7297,10223,15300,0.082,551
2019-11-24T13:59:31,42.805,6.029,CST-1368DR,7297,10221,15297,0.083,551
2019-11-24T14:02:32,42.805,6.029,CST-1368DR,7297,10223,15300,0.082,551
2019-11-24T14:05:34,42.805,6.029,CST-1368DR,7297,10223,15300,0.082,551
2019-11-24T14:08:35,42.805,6.029,CST-1368DR,7297,10224,15301,0.082,551
2019-11-24T14:11:37,42.805,6.029,CST-1368DR,7297,10224,15301,0.082,550
2019-11-24T14:14:39,42.805,6.029,CST-1368DR,7297,10223,15300,0.082,551
2019-11-24T14:17:40,42.805,6.029,CST-1368DR,7297,10223,15300,0.082,551
2019-11-24T14:20:42,42.805,6.029,CST-1368DR,7297,10223,15300,0.082,551
2019-11-24T14:23:44,42.805,6.029,CST-1368DR,7297,10223,15300,0.082,551
2019-11-24T14:26:45,42.805,6.029,CST-1368DR,7297,10221,15298,0.082,551
2019-11-24T14:29:47,42.805,6.029,CST-1368DR,7297,10221,15297,0.083,551
2019-11-24T14:32:49,42.805,6.029,CST-1368DR,7297,10223,15300,0.082,551
2019-11-24T14:35:50,42.805,6.029,CST-1368DR,7297,10223,15300,0.082,551
2019-11-24T14:38:52,42.805,6.029,CST-1368DR,7297,10222,15298,0.082,550
2019-11-24T14:41:53,42.805,6.029,CST-1368DR,7297,10223,15300,0.082,551
2019-11-24T14:44:55,42.805,6.029,CST-1368DR,7297,10223,15300,0.082,551
2019-11-24T14:47:57,42.805,6.029,CST-1368DR,7297,10222,15299,0.082,551
2019-11-24T14:50:58,42.805,6.029,CST-1368DR,7297,10222,15298,0.082,551
2019-11-24T14:54:00,42.805,6.029,CST-1368DR,7296,10221,15298,0.082,551
2019-11-24T14:57:02,42.805,6.029,CST-1368DR,7297,10223,15300,0.082,551
2019-11-24T15:00:03,42.805,6.029,CST-1368DR,7296,10222,15300,0.082,551
2019-11-24T15:03:05,42.805,6.029,CST-1368DR,7296,10220,15298,0.082,551
2019-11-24T15:06:07,42.805,6.029,CST-1368DR,7296,10222,15300,0.082,551
2019-11-24T15:09:08,42.805,6.029,CST-1368DR,7296,10222,15301,0.082,551
2019-11-24T15:12:10,42.805,6.029,CST-1368DR,7296,10222,15301,0.082,551
2019-11-24T15:15:11,42.805,6.029,CST-1368DR,7296,10222,15300,0.082,551
2019-11-24T15:18:13,42.805,6.029,CST-1368DR,7296,10220,15298,0.082,551
2019-11-24T15:21:15,42.805,6.029,CST-1368DR,7296,10222,15300,0.082,551
2019-11-24T15:24:16,42.805,6.029,CST-1368DR,7296,10221,15300,0.082,551
2019-11-24T15:27:18,42.805,6.029,CST-1368DR,7296,10218,15295,0.083,551
2019-11-24T15:30:20,42.805,6.029,CST-1368DR,7296,10222,15300,0.082,551
2019-11-24T15:33:21,42.805,6.029,CST-1368DR,7296,10222,15301,0.082,551
2019-11-24T15:36:23,42.805,6.029,CST-1368DR,7296,10221,15299,0.082,551
2019-11-24T15:39:25,42.805,6.029,CST-1368DR,7296,10222,15300,0.082,551
2019-11-24T15:42:26,42.805,6.029,CST-1368DR,7296,10222,15300,0.082,551
2019-11-24T15:45:28,42.805,6.029,CST-1368DR,7296,10223,15301,0.082,551
2019-11-24T15:48:30,42.805,6.029,CST-1368DR,7296,10221,15300,0.082,551
2019-11-24T15:51:31,42.805,6.029,CST-1368DR,7296,10222,15301,0.082,551
2019-11-24T15:54:33,42.805,6.029,CST-1368DR,7296,10221,15299,0.082,551
2019-11-24T15:57:35,42.805,6.029,CST-1368DR,7296,10222,15300,0.082,551
2019-11-24T16:00:36,42.805,6.029,CST-1368DR,7296,10221,15298,0.082,551
2019-11-24T16:03:38,42.805,6.029,CST-1368DR,7296,10220,15298,0.082,551
2019-11-24T16:06:39,42.805,6.029,CST-1368DR,7296,10222,15301,0.082,551
2019-11-24T16:09:41,42.805,6.029,CST-1368DR,7296,10221,15300,0.082,551
2019-11-24T16:12:43,42.805,6.029,CST-1368DR,7296,10222,15301,0.082,551
2019-11-24T16:15:44,42.805,6.029,CST-1368DR,7296,10222,15300,0.082,550
2019-11-24T16:18:46,42.805,6.029,CST-1368DR,7296,10223,15301,0.082,551
2019-11-24T16:21:48,42.805,6.029,CST-1368DR,7296,10222,15301,0.082,551
2019-11-24T16:24:49,42.805,6.029,CST-1368DR,7296,10222,15300,0.082,551
2019-11-24T16:27:51,42.805,6.029,CST-1368DR,7296,10222,15301,0.082,551
2019-11-24T16:30:52,42.805,6.029,CST-1368DR,7296,10222,15301,0.082,551
2019-11-24T16:33:54,42.805,6.029,CST-1368DR,7296,10223,15301,0.082,551
2019-11-24T16:36:56,42.805,6.029,CST-1368DR,7296,10221,15298,0.082,551